Theta_e
327 326 326 325 325 326 329 330 331 331 330 329 326 325 326 327 326 326 326 327 327 327 326 326 325 324 325 325 325 324 324 322 321 321 320 320 319 319 318 320 320 317 320 321 317 318 324 332 334 333 333 332 331 331 331 331 330 330 329 327 323 318
327 326 326 327 328 328 330 331 332 331 330 329 326 324 326 327 327 327 326 327 326 326 325 325 324 325 326 325 324 323 322 321 320 320 319 319 318 318 317 318 319 317 320 321 318 318 326 333 334 333 332 331 331 331 331 331 330 330 329 327 323 317
328 327 327 329 330 330 331 332 332 331 330 329 325 323 327 328 327 328 327 327 326 326 326 326 327 327 326 324 322 321 320 320 320 319 319 319 318 318 318 318 318 317 322 324 321 322 328 333 333 332 332 331 330 330 330 330 330 330 329 328 325 319
328 328 329 331 331 332 332 332 331 330 329 328 324 324 327 328 328 328 328 327 327 327 328 329 330 328 327 326 324 322 321 320 319 319 320 319 318 318 317 317 317 318 324 326 325 325 329 333 332 332 332 331 330 330 330 330 330 329 329 327 327 324
329 330 331 332 332 332 332 330 330 329 328 326 323 323 327 327 329 329 328 328 328 328 328 329 329 328 327 327 325 325 324 323 322 322 323 321 320 319 319 319 318 321 327 327 326 326 329 332 332 331 331 331 330 329 330 330 330 329 329 328 328 324
330 331 332 333 332 332 331 328 328 328 326 324 323 324 327 328 329 329 328 328 328 328 328 328 328 328 327 325 325 325 325 325 325 326 326 326 324 322 322 323 321 325 329 328 327 326 327 330 330 329 328 328 328 328 330 331 330 330 329 328 326 320
332 332 333 333 332 331 330 328 326 327 325 323 323 325 327 328 329 330 328 328 326 326 328 327 327 327 326 325 325 324 324 325 325 326 326 327 327 325 325 327 327 329 330 328 327 326 326 327 328 328 327 328 328 329 331 331 330 330 329 327 324 318
333 333 334 334 332 331 330 328 326 326 325 323 324 326 327 329 329 329 329 327 325 325 327 327 327 327 326 326 325 325 325 324 324 325 325 325 327 327 327 328 329 330 330 328 327 327 327 327 326 327 328 329 330 331 331 331 331 330 330 327 324 319
334 334 334 334 332 331 330 327 326 326 325 324 326 328 328 329 330 329 328 327 325 325 326 327 327 327 326 325 326 326 325 323 323 324 325 325 325 326 327 328 329 329 329 328 328 328 329 328 328 328 329 329 330 331 331 331 331 330 329 327 324 319
334 334 335 334 332 330 329 327 327 327 326 326 328 329 329 329 329 329 328 328 327 327 326 326 326 326 326 325 325 325 325 324 324 324 325 325 325 325 326 327 328 328 328 328 328 328 328 328 328 329 329 329 330 331 331 330 330 330 328 327 324 320
334 335 335 333 332 331 330 328 328 328 328 328 329 329 328 329 330 329 328 328 328 328 326 326 326 326 326 325 325 323 324 325 324 323 323 324 325 324 325 326 327 327 327 327 327 327 328 327 327 329 329 329 330 331 331 330 329 329 328 327 324 320
335 335 335 333 332 331 330 328 328 329 330 330 329 329 327 328 329 329 329 329 328 328 326 326 327 327 326 326 325 324 324 325 325 323 323 323 323 324 325 325 325 327 327 327 327 327 327 327 327 328 327 329 330 330 329 328 328 329 329 327 324 321
335 335 334 333 332 331 330 329 328 329 331 332 330 327 326 327 328 328 329 328 327 327 325 325 327 327 328 326 325 325 325 325 325 324 323 322 323 323 324 325 325 326 327 327 327 327 327 327 328 328 327 328 329 328 327 327 328 329 328 327 325 323
336 335 335 333 332 330 329 329 330 329 331 331 328 326 326 327 328 327 327 326 326 325 324 325 327 328 328 327 326 326 326 325 325 325 323 322 323 323 323 324 325 325 327 328 327 326 326 327 328 328 327 327 327 328 326 326 327 327 328 328 326 326
335 335 334 333 331 330 329 330 330 330 330 329 326 326 328 329 327 326 326 326 326 326 325 326 328 329 328 328 327 326 327 327 326 326 324 323 323 323 323 323 324 325 327 327 327 326 327 327 327 326 325 325 326 327 326 326 326 326 327 328 326 326
335 334 334 333 331 329 330 330 330 330 330 328 326 328 330 329 327 326 327 327 328 328 327 327 328 329 329 328 328 328 327 327 326 325 325 323 322 323 322 323 324 326 326 326 326 326 326 327 326 326 325 325 326 326 326 326 326 325 327 327 326 326
334 333 331 331 330 330 330 330 330 330 330 329 328 329 329 328 327 326 327 328 328 328 327 327 328 328 329 329 329 328 327 327 327 326 325 323 322 323 322 323 324 326 327 326 326 326 326 326 326 326 326 325 324 324 325 325 324 324 325 326 326 326
334 332 330 329 330 332 332 331 331 331 330 330 329 329 328 327 326 326 326 327 327 327 327 326 327 328 328 328 328 328 328 327 327 327 325 324 323 323 322 323 324 326 327 326 326 326 326 325 325 325 324 323 323 323 323 324 323 324 325 325 324 323
332 331 330 330 331 333 333 331 332 332 330 329 328 328 328 327 327 327 327 326 325 326 326 326 326 327 327 327 327 328 328 328 328 327 325 324 323 322 322 323 324 325 327 327 326 326 325 325 325 323 322 322 323 323 324 324 324 324 326 325 324 323
330 330 331 332 333 334 333 332 331 330 328 328 328 328 328 328 326 325 325 324 324 325 326 325 325 327 326 326 326 327 328 328 328 327 325 324 324 322 322 323 324 325 327 327 327 326 325 325 324 324 324 324 324 324 324 325 325 325 326 326 325 325
329 329 331 332 333 332 331 331 329 327 327 328 329 328 327 328 325 323 324 324 325 325 325 324 324 326 326 326 326 327 328 328 328 327 325 325 325 323 322 323 324 325 326 327 327 326 326 325 324 325 325 325 325 324 325 326 326 326 325 324 323 324
327 328 331 331 330 329 328 327 326 326 328 328 328 327 325 326 325 322 325 326 325 325 325 324 325 326 326 326 326 327 328 327 328 327 325 324 325 324 322 323 324 324 324 326 327 326 327 327 325 325 324 325 326 326 326 326 325 324 323 322 321 321
326 328 330 328 326 325 325 326 326 327 328 328 327 326 324 325 323 321 324 326 325 325 325 325 326 327 326 326 326 327 326 327 327 326 325 323 325 324 322 322 324 324 323 325 327 327 327 328 326 325 325 325 326 326 326 325 324 323 323 323 323 323
327 328 328 326 324 324 326 328 328 328 328 327 327 327 326 324 321 320 323 325 326 326 325 325 325 326 325 325 326 326 326 327 326 326 324 323 325 324 322 322 323 324 323 323 326 327 327 327 326 325 325 326 326 326 326 325 324 324 324 324 325 324
328 328 325 324 324 326 328 329 329 329 328 327 327 327 326 322 319 320 321 324 327 327 326 325 323 323 323 324 325 325 325 326 325 326 325 324 325 324 322 322 323 323 323 322 323 325 326 327 327 326 325 325 326 326 326 325 325 324 324 324 324 324
327 326 324 323 325 328 329 328 327 327 326 325 325 324 321 318 319 320 321 322 325 325 325 325 324 323 322 323 325 325 324 324 324 325 325 324 324 323 322 322 322 323 323 322 322 323 324 326 327 327 325 324 325 326 325 324 324 323 323 323 323 324
325 324 324 324 326 327 328 327 324 322 321 321 320 319 318 318 319 320 319 320 320 320 320 321 322 322 323 323 323 325 324 324 323 323 323 323 322 322 323 322 323 323 322 321 322 323 324 325 326 327 326 324 324 325 324 323 323 323 322 322 323 323
323 323 324 325 326 325 325 325 324 322 322 320 316 314 316 318 318 317 316 315 314 315 315 316 316 317 320 320 321 323 323 322 322 323 323 323 322 322 322 323 323 323 323 323 323 324 324 324 325 326 325 325 325 324 324 323 323 322 322 322 323 322
322 323 325 326 326 326 326 325 325 325 325 323 315 311 315 316 315 314 312 311 311 311 312 312 312 314 315 316 319 322 321 321 322 322 323 324 324 324 323 323 324 325 325 325 324 324 323 323 323 324 324 325 325 324 324 323 322 322 321 322 322 322
322 323 324 325 327 328 328 327 326 326 326 322 313 312 317 317 315 312 310 311 311 310 311 312 314 316 315 314 318 320 320 320 321 322 323 323 324 326 326 325 326 326 325 325 325 324 323 323 323 324 324 324 325 325 324 323 322 321 321 321 321 321
322 323 324 326 328 329 328 328 327 328 325 319 312 314 317 318 316 312 311 314 313 312 313 316 320 321 319 317 319 320 319 318 319 321 322 322 322 323 324 326 326 325 323 324 325 324 324 324 324 324 324 324 324 324 324 323 322 322 321 321 320 319
323 324 326 327 327 328 328 327 328 326 321 315 312 313 314 315 313 311 312 315 314 314 315 318 322 323 322 322 322 321 321 320 319 321 322 323 322 321 321 324 325 323 321 322 323 323 323 324 323 323 323 324 324 324 324 323 322 322 321 321 320 317
325 325 326 326 327 327 326 327 325 321 317 315 313 312 312 312 311 310 313 315 315 315 314 316 321 323 324 323 322 321 321 322 322 322 322 323 323 321 321 323 324 322 320 320 321 322 322 323 323 323 323 324 324 324 324 324 323 322 320 319 318 314
325 325 325 326 327 326 326 326 323 320 319 317 312 310 310 309 309 311 314 316 314 314 314 314 317 321 322 321 320 319 320 321 322 323 322 322 321 321 322 323 322 320 319 320 321 321 323 324 324 323 323 324 324 324 324 323 322 322 318 315 312 310
325 325 325 327 328 326 325 326 322 322 322 316 311 310 309 309 310 312 314 316 315 315 316 314 314 316 317 316 317 318 319 319 319 320 320 319 321 322 321 321 320 318 318 320 322 322 323 324 323 323 322 322 323 323 324 323 322 321 317 311 310 310
326 325 326 326 325 323 321 321 322 323 321 316 312 311 311 312 312 313 315 315 315 317 317 316 314 312 312 314 316 317 318 318 317 318 318 318 321 322 321 321 320 318 319 321 323 323 323 322 321 320 318 318 319 320 322 322 322 322 318 313 311 312
324 324 325 324 322 320 318 321 324 324 319 316 314 314 315 315 313 314 316 316 316 316 317 316 314 311 311 314 316 317 318 318 317 317 318 319 321 322 322 322 321 320 321 322 323 322 321 321 320 318 314 313 315 316 318 320 321 321 319 315 312 311
Wind_Speed
26 25 25 24 23 22 20 18 17 15 14 15 15 15 15 15 14 14 14 13 13 13 12 11 11 11 10 11 10 8 8 8 8 7 6 5 5 5 5 5 4 5 7 9 14 20 20 20 19 14 12 12 9 6 4 4 4 3 4 6 7 7
27 26 26 25 24 22 20 19 16 16 15 15 15 15 16 15 14 14 13 12 11 11 11 11 10 10 10 10 9 7 7 7 7 7 6 5 5 5 5 6 5 6 8 11 15 20 21 21 18 13 12 11 9 6 5 5 3 2 3 5 7 8
27 27 26 24 23 21 20 18 16 16 15 15 16 16 16 15 14 13 12 11 10 11 11 11 10 9 9 9 8 7 7 7 7 7 6 5 5 5 6 7 7 8 11 14 17 20 21 21 17 13 11 11 9 7 4 3 2 1 2 4 6 8
28 27 26 24 22 20 19 17 17 16 15 16 17 17 16 14 13 12 11 10 10 11 11 10 9 8 8 7 7 7 7 8 8 7 7 6 5 5 6 7 8 11 13 16 19 20 21 21 16 12 12 11 9 7 4 2 0 1 2 3 5 8
27 27 25 23 22 20 18 17 17 16 15 16 17 17 15 13 12 11 11 11 10 10 9 10 9 8 8 7 6 6 7 8 8 8 8 7 6 6 7 8 10 14 16 17 19 20 21 21 17 12 12 12 9 7 5 3 2 2 2 3 5 7
28 27 24 22 21 19 18 18 17 17 16 17 17 16 14 12 11 11 11 10 9 9 8 9 8 8 7 6 5 5 6 7 8 8 8 7 7 8 9 9 13 16 16 16 18 20 21 20 17 13 12 11 10 9 7 5 3 2 2 3 4 4
28 26 25 23 20 18 18 18 17 17 17 17 17 16 14 12 11 10 10 9 8 7 7 7 7 7 7 6 6 5 6 6 7 7 8 8 7 8 10 11 13 14 13 13 15 18 20 19 17 13 12 11 11 10 7 5 4 2 2 2 3 3
27 26 25 23 20 18 18 18 18 18 18 17 16 15 14 12 11 10 9 9 8 6 6 5 5 6 6 5 5 5 5 5 6 6 7 8 8 8 10 11 12 12 11 11 13 14 15 16 16 13 12 11 10 10 7 6 4 2 0 2 3 3
27 26 24 22 19 18 18 19 19 18 18 17 16 15 14 13 11 10 9 9 8 6 6 5 5 5 5 4 4 5 4 3 4 5 7 7 7 8 8 10 12 11 11 10 10 10 10 12 14 12 11 10 10 10 7 5 4 2 0 2 3 3
26 25 24 21 19 19 18 19 18 18 18 17 16 15 14 12 10 9 8 8 7 7 6 4 4 3 3 3 4 4 3 2 2 4 7 7 7 6 6 8 11 11 10 10 8 8 8 9 10 10 12 11 10 10 8 6 4 2 1 1 2 3
27 25 23 20 20 19 19 18 17 17 17 16 16 15 13 11 9 9 8 6 5 5 5 4 3 2 2 2 3 4 4 2 2 3 6 6 6 5 5 5 9 10 10 10 8 7 7 6 6 9 11 11 11 10 9 7 5 4 3 2 2 3
27 25 23 21 20 19 18 18 17 17 17 16 15 14 13 11 9 8 7 5 4 5 4 3 3 2 3 3 4 5 5 4 3 4 6 6 5 5 4 5 8 9 10 10 9 7 6 5 6 9 11 12 12 10 8 7 6 6 4 3 3 5
27 26 23 20 20 19 19 18 17 17 16 16 15 15 13 11 9 7 6 5 5 5 4 3 3 3 4 4 4 5 5 4 4 5 6 6 5 5 5 6 8 9 10 9 8 7 5 4 5 8 11 13 12 9 8 7 6 5 4 4 4 5
27 25 23 21 20 20 19 18 17 16 15 15 14 13 12 10 8 6 5 5 5 5 4 4 4 4 5 5 5 5 4 4 4 4 5 6 5 5 5 6 8 9 9 9 7 6 4 4 6 9 10 10 9 9 8 8 7 5 5 5 5 6
25 24 22 21 21 20 20 18 16 15 14 14 13 12 11 10 8 5 5 4 5 6 5 4 4 4 4 5 5 5 5 5 4 5 5 5 5 5 6 6 7 8 8 7 6 6 4 6 9 10 9 7 7 8 8 8 7 6 6 6 6 6
23 23 22 21 21 19 19 17 15 14 13 12 13 12 11 9 7 5 5 6 6 6 5 5 5 6 5 5 6 7 7 6 6 6 5 5 6 6 6 6 7 7 6 5 5 5 6 9 10 11 9 7 7 8 8 8 7 6 7 7 6 6
24 23 20 20 21 19 18 17 15 14 12 11 11 11 10 8 6 6 7 7 6 6 5 5 6 7 6 6 7 9 9 7 7 7 6 6 6 6 6 6 8 8 6 5 5 5 7 10 11 10 9 7 7 7 8 8 7 6 6 7 6 5
25 23 20 19 19 20 19 16 14 13 12 11 10 10 9 8 7 6 6 6 6 7 6 5 6 7 7 7 7 9 9 7 8 8 7 7 7 7 7 7 9 10 8 6 6 7 8 8 9 10 9 8 7 8 9 8 7 6 6 7 6 5
27 24 22 20 19 20 18 16 16 14 13 12 10 10 10 9 8 6 6 6 6 7 6 5 6 8 8 8 7 9 8 8 8 8 7 7 8 8 8 9 10 10 9 8 7 8 8 9 10 10 8 8 8 8 8 8 7 6 5 6 5 5
27 24 23 22 20 20 19 18 18 16 15 14 13 13 12 10 9 7 7 6 6 7 7 5 6 7 8 8 8 9 8 8 8 8 7 7 8 9 9 10 10 10 10 10 10 10 9 10 12 12 9 7 7 7 7 7 6 6 6 4 4 4
28 25 24 23 22 21 22 21 20 19 18 17 16 15 13 11 8 8 8 8 8 7 6 5 5 6 7 8 8 8 8 9 8 8 8 7 8 10 10 10 10 10 10 10 11 12 11 11 12 13 11 8 6 6 6 7 9 8 7 6 6 6
28 26 25 23 22 22 22 21 21 21 21 19 17 14 11 9 6 6 7 8 8 8 7 6 6 6 7 8 8 8 8 8 8 8 9 8 9 10 11 11 11 12 11 10 11 13 13 12 12 12 12 11 9 7 7 10 13 11 10 10 10 9
27 26 25 23 22 22 22 21 22 22 20 18 15 11 8 6 4 5 6 7 7 7 7 7 6 6 6 7 7 7 7 7 8 9 9 9 9 10 11 11 10 12 12 11 12 13 14 13 12 12 12 11 11 10 10 13 15 14 12 11 10 9
26 26 25 24 23 23 24 24 23 21 18 15 12 10 7 5 5 5 6 6 6 7 8 7 6 6 6 7 7 7 6 7 8 9 9 8 8 10 11 12 11 12 12 11 12 13 13 12 12 13 13 12 11 11 12 13 14 14 12 10 8 7
27 27 26 26 26 26 27 26 24 21 18 15 13 11 10 9 8 7 7 7 7 7 7 8 8 6 6 6 7 7 7 8 8 8 9 8 8 10 10 11 12 11 11 11 11 12 12 12 12 12 12 12 11 9 11 15 14 11 9 9 9 7
29 29 28 28 29 29 28 27 25 23 21 18 16 13 13 12 11 10 8 8 7 6 6 7 8 7 7 7 7 7 8 8 8 8 8 8 9 9 9 10 10 10 9 10 10 11 12 12 14 13 12 11 9 9 15 19 16 12 9 8 10 10
31 30 30 30 30 29 28 26 23 21 19 19 17 15 13 12 11 9 8 7 7 6 5 5 7 8 8 8 8 9 9 8 7 8 8 9 9 8 8 9 9 8 8 9 10 10 11 12 15 14 13 11 7 10 18 20 18 17 16 13 12 12
30 31 32 32 30 28 27 26 24 21 19 18 16 15 15 13 11 10 9 8 7 7 7 6 6 7 8 8 9 10 11 9 8 8 8 9 9 8 9 9 9 8 8 9 10 9 10 12 14 14 14 11 8 15 19 17 17 19 19 20 17 15
29 32 32 31 30 29 28 27 25 23 21 18 15 15 15 14 12 11 9 8 7 7 7 7 7 7 8 9 10 12 12 11 10 9 9 9 10 9 9 10 9 8 8 9 10 10 10 12 13 13 15 12 12 18 18 15 17 17 18 21 20 18
31 33 32 31 32 31 29 28 26 24 22 19 17 17 15 13 12 10 8 7 7 7 7 7 7 7 8 9 11 12 11 11 10 9 9 10 10 10 10 10 9 8 8 9 9 10 10 11 12 12 14 13 13 18 18 16 18 19 18 20 21 20
35 36 35 34 33 32 29 28 26 24 22 21 20 18 16 15 13 10 9 8 7 7 6 7 8 7 7 8 9 9 9 9 9 8 8 8 8 8 9 9 9 9 9 9 10 11 12 12 13 13 14 12 12 15 18 19 20 20 19 19 21 21
38 39 38 36 34 31 29 27 25 24 23 21 20 18 16 16 14 13 12 10 8 8 8 10 10 9 9 8 7 7 8 8 8 8 8 8 7 5 6 8 9 10 10 11 12 11 12 12 12 13 13 12 11 12 15 18 19 19 16 16 19 20
39 40 38 35 32 30 29 27 24 23 22 22 20 17 16 16 15 14 13 11 10 9 10 11 11 11 10 9 8 7 8 9 8 8 8 8 6 4 5 7 10 11 10 11 11 10 11 11 11 11 12 12 11 12 14 16 16 16 13 14 18 20
39 38 36 33 32 30 29 26 24 23 21 20 18 17 16 16 16 15 13 11 10 8 8 10 11 11 10 9 9 8 8 8 9 9 9 8 7 6 7 10 11 11 9 9 9 10 11 11 12 11 11 11 12 13 13 14 15 15 13 15 18 20
36 36 35 34 33 31 28 25 24 22 20 19 18 17 16 16 16 14 12 11 9 8 7 8 10 11 10 10 10 8 8 8 8 9 10 9 9 10 10 12 12 11 10 10 10 11 12 13 13 13 13 13 13 14 13 14 16 15 13 14 16 16
34 34 34 33 32 30 27 26 25 23 21 20 18 18 17 17 16 14 12 10 7 7 7 6 8 10 10 10 9 8 7 8 8 8 9 10 11 11 11 12 12 12 13 13 13 14 15 15 16 16 16 14 13 14 14 16 18 16 14 14 13 12
33 33 32 31 30 29 28 27 26 24 22 20 18 18 17 17 16 14 12 9 7 7 6 4 5 8 9 8 8 6 7 8 9 8 9 11 12 11 11 11 11 13 15 16 16 17 16 16 17 17 16 13 11 12 13 15 19 18 17 15 14 14
Wind_Direction
163 161 161 159 159 160 160 161 160 159 155 152 149 148 151 151 149 143 141 142 138 132 130 132 129 127 123 119 114 112 115 118 123 123 127 130 130 125 113 118 118 123 130 128 145 160 160 153 147 145 163 173 168 159 137 119 98 57 22 21 27 32
164 163 163 161 161 161 162 165 162 160 157 152 152 157 159 158 154 147 146 142 135 132 131 131 128 127 120 112 107 110 118 121 127 129 135 137 135 134 126 125 128 130 129 130 143 158 160 153 147 145 159 168 165 156 130 115 99 53 8 15 29 32
166 164 165 163 162 163 165 165 161 162 159 154 159 166 166 161 156 149 147 142 140 137 132 130 127 121 110 102 100 105 113 117 122 125 130 134 137 140 141 140 137 138 132 133 144 156 160 152 145 141 150 165 166 159 135 113 99 13 344 1 18 23
169 166 166 165 165 166 166 164 163 164 159 159 166 170 168 162 156 150 147 147 146 137 129 127 121 113 104 100 99 98 102 107 115 123 126 128 131 135 144 149 143 140 137 139 148 156 159 153 149 146 151 164 170 170 162 142 215 292 327 356 6 10
170 168 168 168 169 169 167 165 164 164 160 164 170 170 167 162 157 155 152 149 142 131 127 122 114 114 109 109 110 105 105 105 112 121 123 120 121 129 138 147 145 143 142 145 150 156 160 159 161 163 164 171 177 183 185 194 235 281 318 347 357 3
172 171 172 173 172 173 170 166 165 164 163 168 172 169 164 165 165 162 156 147 139 130 129 121 112 119 119 124 127 123 118 111 119 125 125 123 123 129 133 140 145 145 146 149 151 157 163 168 172 176 181 186 191 192 191 200 220 255 318 354 10 16
175 175 176 177 176 176 171 167 168 165 166 170 171 167 166 171 171 164 157 145 135 129 129 124 119 131 135 137 137 133 131 119 122 132 134 135 137 137 136 139 145 147 150 155 156 158 165 172 176 181 192 200 203 197 192 200 210 241 312 22 51 43
180 180 178 178 179 177 171 170 172 167 166 171 168 166 170 173 171 165 159 144 135 135 141 142 140 147 147 145 143 142 147 131 125 139 142 142 145 145 146 146 147 153 160 165 165 164 164 172 178 185 198 206 207 199 193 202 210 233 290 65 70 65
183 183 180 179 180 175 172 173 173 167 166 169 166 167 171 170 171 168 157 145 144 149 154 157 153 154 155 153 156 159 163 143 127 145 150 148 150 152 155 157 158 162 171 174 176 173 164 168 177 189 205 211 205 197 195 201 205 224 204 78 79 87
187 185 181 179 180 175 173 175 171 166 165 167 167 167 168 168 169 164 153 149 153 159 163 165 157 157 165 167 178 180 176 150 128 151 157 157 159 159 158 164 172 176 182 185 185 179 166 163 173 190 208 211 202 193 186 181 179 189 194 112 99 102
191 186 183 181 180 176 176 175 169 164 164 167 171 173 173 172 170 163 159 162 166 177 184 180 175 184 181 182 203 200 190 173 157 163 164 163 164 164 157 164 179 184 186 190 190 181 173 168 172 189 199 199 194 189 183 184 187 177 178 177 130 106
192 187 186 183 180 179 178 175 169 167 168 169 173 177 179 176 176 175 176 188 198 208 211 199 202 216 201 193 201 204 200 189 178 175 167 164 162 157 157 166 178 182 182 189 194 187 183 174 176 189 191 191 191 191 198 202 193 175 173 183 143 117
191 188 186 183 182 181 179 176 171 169 172 174 174 175 177 176 180 185 194 205 210 216 218 210 214 221 211 203 205 212 215 209 196 181 164 161 163 152 156 170 175 180 182 187 194 192 190 183 183 187 189 198 196 188 192 186 178 178 169 169 149 131
189 189 186 182 182 182 181 179 175 173 176 178 175 173 176 180 184 190 199 205 212 220 219 216 223 219 210 208 215 227 238 241 224 197 171 160 165 157 155 171 180 185 182 182 194 201 192 170 170 174 181 194 192 176 170 166 175 187 172 165 154 135
187 189 186 182 182 181 182 181 177 178 179 180 177 175 181 188 191 191 200 207 215 224 226 230 233 222 214 211 218 228 239 246 232 207 188 170 169 165 157 171 185 186 178 180 206 221 189 153 150 157 162 162 158 153 153 159 171 174 171 173 161 146
183 185 186 182 182 182 182 180 178 179 177 178 179 181 186 191 196 197 207 214 215 222 229 234 230 220 216 218 224 228 229 232 220 207 196 182 176 170 163 172 184 182 183 190 203 207 175 157 149 145 147 145 145 144 146 157 164 161 171 178 170 164
179 182 181 179 184 187 183 180 177 176 176 177 178 183 187 191 198 206 211 213 209 211 219 223 216 214 215 222 229 224 219 215 212 206 192 189 186 177 170 173 181 179 188 193 176 165 156 154 151 145 145 152 151 139 133 144 153 155 164 171 177 185
176 176 173 173 183 188 183 179 176 175 177 175 173 179 185 189 194 196 193 194 199 202 211 213 203 205 209 214 219 212 208 205 207 203 188 191 193 185 173 172 183 179 177 182 165 155 149 142 142 142 143 143 136 124 120 121 129 138 148 159 172 185
174 172 170 172 181 184 180 176 175 175 175 171 170 175 178 180 178 170 165 171 187 194 200 202 195 197 198 201 203 198 198 200 204 202 192 192 195 192 176 171 185 181 171 169 163 163 155 142 140 143 142 136 127 123 125 121 120 128 140 153 161 168
172 171 172 173 177 179 175 174 175 174 171 168 168 169 169 169 161 150 155 164 177 186 189 190 194 198 197 196 192 189 192 197 202 204 198 190 192 194 180 174 186 184 176 168 163 168 167 154 148 148 148 147 140 138 135 126 127 134 133 131 126 135
171 172 172 171 173 174 173 173 174 172 168 166 166 165 165 163 147 135 147 159 169 176 175 175 188 194 194 193 187 185 190 195 201 204 195 184 188 193 184 180 187 185 184 177 164 164 169 166 158 155 157 161 159 157 147 128 125 130 125 111 97 93
171 171 171 171 172 171 173 174 171 169 166 165 165 165 164 156 138 132 141 152 162 166 159 159 173 177 180 185 184 184 186 189 199 202 194 183 187 193 187 184 188 187 186 181 169 164 167 172 170 165 166 165 158 155 150 135 127 123 119 109 98 94
170 170 172 174 173 170 170 168 166 165 163 164 164 161 160 151 143 143 137 139 149 154 151 149 157 163 170 174 174 177 183 186 192 198 199 193 192 195 188 184 188 192 190 182 174 169 170 176 174 167 165 160 153 150 144 137 129 121 119 113 102 97
171 172 173 174 170 165 163 162 162 161 160 161 157 157 168 169 167 165 149 142 142 143 144 146 151 159 167 167 165 169 178 186 190 199 205 203 201 199 190 184 186 192 196 190 181 175 173 178 178 170 164 155 150 153 148 144 137 125 125 124 118 112
175 175 172 169 165 163 163 162 162 159 157 156 158 172 189 185 177 175 164 151 144 140 142 146 151 158 161 159 161 166 170 178 184 193 200 198 194 196 194 190 188 189 196 200 196 188 181 181 180 178 175 164 156 162 158 150 143 132 133 138 140 139
178 175 170 166 165 167 167 166 166 164 162 166 173 187 197 190 179 175 170 162 154 150 145 143 145 149 152 147 151 162 167 173 177 177 181 184 182 188 195 194 195 194 196 204 206 202 198 193 186 183 188 181 177 185 167 152 145 137 136 140 145 145
177 172 168 167 168 172 172 170 173 172 171 177 180 183 189 191 183 175 174 174 169 166 163 153 147 148 151 148 146 151 154 158 168 169 172 182 183 185 188 189 197 202 203 206 206 208 210 203 193 188 190 192 196 188 173 163 158 151 141 139 145 146
173 170 170 171 172 177 178 177 178 177 177 182 182 179 183 188 187 183 182 183 181 179 176 166 161 161 162 162 153 148 147 145 149 156 163 174 179 181 185 188 196 204 208 207 206 210 213 207 199 192 189 188 174 171 174 175 173 163 150 143 143 146
171 171 174 175 177 180 183 182 180 180 181 183 185 185 184 183 182 180 182 183 182 182 179 172 172 172 170 172 166 160 159 153 148 149 152 164 170 173 184 191 195 203 204 203 206 208 210 208 204 198 193 183 163 167 175 176 173 170 160 150 147 149
175 175 177 181 183 183 185 185 184 186 186 185 187 187 183 180 178 178 180 179 175 178 178 174 175 170 166 171 172 173 173 165 159 158 156 163 168 168 176 183 186 192 190 193 200 196 197 205 205 201 198 190 172 171 175 173 172 173 167 157 153 151
180 178 181 185 185 184 185 187 189 193 195 190 186 187 183 179 180 185 187 179 174 181 181 177 174 165 161 170 175 180 186 178 172 178 175 164 160 162 171 176 177 179 177 177 184 185 186 192 197 198 201 202 194 185 185 182 179 178 171 163 157 152
183 181 183 185 184 184 186 189 193 199 199 192 186 186 183 182 183 186 187 181 181 193 192 186 183 174 170 179 187 191 200 193 180 186 188 174 164 163 174 178 176 175 175 175 179 183 180 180 190 200 201 201 204 204 198 191 184 180 179 176 165 154
186 184 183 183 181 183 186 189 195 198 195 189 186 184 182 184 185 186 185 181 187 199 198 195 192 189 188 195 204 201 200 201 195 191 188 187 195 199 188 184 179 178 178 178 177 174 169 171 181 190 189 187 194 199 196 195 191 184 185 187 172 154
187 187 187 184 182 185 187 190 196 197 193 189 185 182 183 184 183 183 183 184 191 194 200 207 203 202 205 204 204 197 187 194 202 202 200 206 210 194 179 177 178 179 176 170 166 159 159 164 167 168 168 171 179 185 185 189 188 181 177 177 170 156
185 186 187 186 186 188 189 192 197 199 196 191 185 181 182 182 180 178 177 180 185 181 189 209 214 215 215 205 198 192 186 191 198 204 209 209 197 179 174 175 175 176 169 161 158 156 156 157 155 152 151 155 166 175 180 183 181 179 174 165 161 157
185 186 186 187 188 190 193 195 198 199 195 189 183 180 177 176 175 171 169 171 173 174 177 191 209 214 211 204 198 190 191 194 192 195 198 194 188 179 176 176 173 171 166 162 160 160 159 155 149 144 141 143 156 167 177 187 188 187 182 172 166 163
190 192 190 189 189 191 195 197 198 197 191 185 183 180 174 171 170 168 169 174 179 180 176 172 194 203 205 206 203 195 195 194 191 189 179 175 178 177 175 173 170 168 165 163 163 163 162 158 151 146 141 137 148 163 174 184 189 193 188 182 181 173